Time,TemperatureF,DewpointF,PressureIn,WindDirection,WindDirectionDegrees,WindSpeedMPH,WindSpeedGustMPH,Humidity,HourlyPrecipIn,Conditions,Clouds,dailyrainin,SoftwareType,DateUTC
2013-04-02 00:00:00,27.9,24.8,29.93,West,281,4.0,5.0,88,0.00,,,0.00,Wunderground v.1.15,2013-04-02 04:00:00,
2013-04-02 00:02:00,27.9,24.5,29.93,West,261,6.0,6.0,87,0.00,,,0.00,Wunderground v.1.15,2013-04-02 04:02:00,
2013-04-02 00:07:00,28.0,24.1,29.93,West,273,7.0,11.0,85,0.00,,,0.00,Wunderground v.1.15,2013-04-02 04:07:00,
2013-04-02 00:12:00,28.1,23.3,29.93,West,279,7.0,13.0,82,0.00,,,0.00,Wunderground v.1.15,2013-04-02 04:12:00,
2013-04-02 00:18:00,28.2,22.8,29.93,WSW,256,5.0,13.0,80,0.00,,,0.00,Wunderground v.1.15,2013-04-02 04:18:00,
2013-04-02 00:23:00,28.3,22.3,29.93,West,267,5.0,7.0,78,0.00,,,0.00,Wunderground v.1.15,2013-04-02 04:23:00,
2013-04-02 00:29:00,28.4,22.1,29.93,West,275,3.0,7.0,77,0.00,,,0.00,Wunderground v.1.15,2013-04-02 04:29:00,
2013-04-02 00:34:00,28.5,21.9,29.93,West,280,13.0,13.0,76,0.00,,,0.00,Wunderground v.1.15,2013-04-02 04:34:00,
2013-04-02 00:40:00,28.7,21.8,29.92,WSW,251,2.0,5.0,75,0.00,,,0.00,Wunderground v.1.15,2013-04-02 04:40:00,
2013-04-02 00:45:00,28.7,21.5,29.92,WSW,247,3.0,6.0,74,0.00,,,0.00,Wunderground v.1.15,2013-04-02 04:45:00,
2013-04-02 00:50:00,28.7,21.5,29.93,WSW,254,6.0,6.0,74,0.00,,,0.00,Wunderground v.1.15,2013-04-02 04:50:00,
2013-04-02 00:55:00,28.8,21.6,29.93,West,273,3.0,7.0,74,0.00,,,0.00,Wunderground v.1.15,2013-04-02 04:55:00,
2013-04-02 01:02:00,28.8,21.2,29.93,West,279,5.0,5.0,73,0.00,,,0.00,Wunderground v.1.15,2013-04-02 05:02:00,
2013-04-02 01:07:00,28.8,20.9,29.93,West,261,6.0,10.0,72,0.00,,,0.00,Wunderground v.1.15,2013-04-02 05:07:00,
2013-04-02 01:12:00,28.8,20.6,29.93,West,267,8.0,8.0,71,0.00,,,0.00,Wunderground v.1.15,2013-04-02 05:12:00,
2013-04-02 01:18:00,28.9,20.3,29.93,West,278,3.0,10.0,70,0.00,,,0.00,Wunderground v.1.15,2013-04-02 05:18:00,
2013-04-02 01:23:00,28.9,20.3,29.94,West,270,7.0,7.0,70,0.00,,,0.00,Wunderground v.1.15,2013-04-02 05:23:00,
2013-04-02 01:29:00,29.0,19.8,29.93,WNW,292,5.0,9.0,68,0.00,,,0.00,Wunderground v.1.15,2013-04-02 05:29:00,
2013-04-02 01:35:00,29.0,19.4,29.94,West,263,5.0,11.0,67,0.00,,,0.00,Wunderground v.1.15,2013-04-02 05:35:00,
2013-04-02 01:40:00,29.1,20.2,29.94,West,265,10.0,10.0,69,0.00,,,0.00,Wunderground v.1.15,2013-04-02 05:40:00,
2013-04-02 01:45:00,29.1,20.2,29.94,WNW,286,8.0,10.0,69,0.00,,,0.00,Wunderground v.1.15,2013-04-02 05:45:00,
2013-04-02 01:51:00,28.8,21.9,29.94,West,279,10.0,10.0,75,0.00,,,0.00,Wunderground v.1.15,2013-04-02 05:51:00,
2013-04-02 01:57:00,27.8,22.4,29.94,SW,228,5.0,13.0,80,0.00,,,0.00,Wunderground v.1.15,2013-04-02 05:57:00,
2013-04-02 02:02:00,27.6,21.6,29.93,WSW,257,1.0,7.0,78,0.00,,,0.00,Wunderground v.1.15,2013-04-02 06:02:00,
2013-04-02 02:07:00,27.6,21.3,29.93,SW,232,5.0,7.0,77,0.00,,,0.00,Wunderground v.1.15,2013-04-02 06:07:00,
2013-04-02 02:12:00,27.9,20.7,29.93,West,273,4.0,9.0,74,0.00,,,0.00,Wunderground v.1.15,2013-04-02 06:12:00,
2013-04-02 02:17:00,28.0,20.5,29.93,West,273,2.0,9.0,73,0.00,,,0.00,Wunderground v.1.15,2013-04-02 06:17:00,
2013-04-02 02:22:00,28.0,20.1,29.93,West,275,4.0,5.0,72,0.00,,,0.00,Wunderground v.1.15,2013-04-02 06:22:00,
2013-04-02 02:27:00,28.0,19.8,29.93,WNW,296,8.0,9.0,71,0.00,,,0.00,Wunderground v.1.15,2013-04-02 06:27:00,
2013-04-02 02:32:00,28.2,19.7,29.93,West,275,5.0,5.0,70,0.00,,,0.00,Wunderground v.1.15,2013-04-02 06:32:00,
2013-04-02 02:37:00,28.1,21.2,29.93,WNW,296,2.0,14.0,75,0.00,,,0.00,Wunderground v.1.15,2013-04-02 06:37:00,
2013-04-02 02:42:00,27.6,21.6,29.93,NW,315,3.0,7.0,78,0.00,,,0.00,Wunderground v.1.15,2013-04-02 06:42:00,
2013-04-02 02:47:00,27.2,21.8,29.93,WNW,300,6.0,13.0,80,0.00,,,0.00,Wunderground v.1.15,2013-04-02 06:47:00,
2013-04-02 02:52:00,27.1,21.5,29.94,WNW,286,5.0,6.0,79,0.00,,,0.00,Wunderground v.1.15,2013-04-02 06:52:00,
2013-04-02 02:57:00,27.1,21.2,29.93,WNW,299,1.0,7.0,78,0.00,,,0.00,Wunderground v.1.15,2013-04-02 06:57:00,
2013-04-02 03:02:00,27.5,19.7,29.93,West,262,6.0,11.0,72,0.00,,,0.00,Wunderground v.1.15,2013-04-02 07:02:00,
2013-04-02 03:07:00,27.8,18.9,29.93,NW,316,4.0,11.0,69,0.00,,,0.00,Wunderground v.1.15,2013-04-02 07:07:00,
2013-04-02 03:13:00,27.9,18.7,29.93,West,268,8.0,14.0,68,0.00,,,0.00,Wunderground v.1.15,2013-04-02 07:13:00,
2013-04-02 03:18:00,27.9,19.0,29.93,NW,308,7.0,14.0,69,0.00,,,0.00,Wunderground v.1.15,2013-04-02 07:18:00,
2013-04-02 03:23:00,27.6,19.1,29.93,WNW,282,11.0,14.0,70,0.00,,,0.00,Wunderground v.1.15,2013-04-02 07:23:00,
2013-04-02 03:28:00,27.5,19.3,29.93,WNW,289,4.0,14.0,71,0.00,,,0.00,Wunderground v.1.15,2013-04-02 07:28:00,
2013-04-02 03:33:00,27.4,19.2,29.93,WSW,255,8.0,8.0,71,0.00,,,0.00,Wunderground v.1.15,2013-04-02 07:33:00,
2013-04-02 03:38:00,27.4,19.2,29.93,West,277,3.0,11.0,71,0.00,,,0.00,Wunderground v.1.15,2013-04-02 07:38:00,
2013-04-02 03:43:00,27.4,18.9,29.93,WNW,296,5.0,8.0,70,0.00,,,0.00,Wunderground v.1.15,2013-04-02 07:43:00,
2013-04-02 03:48:00,27.5,19.0,29.93,West,279,4.0,8.0,70,0.00,,,0.00,Wunderground v.1.15,2013-04-02 07:48:00,
2013-04-02 03:53:00,27.5,19.3,29.93,SW,232,3.0,10.0,71,0.00,,,0.00,Wunderground v.1.15,2013-04-02 07:53:00,
2013-04-02 03:58:00,27.3,19.8,29.93,West,259,8.0,10.0,73,0.00,,,0.00,Wunderground v.1.15,2013-04-02 07:58:00,
2013-04-02 04:03:00,26.8,20.2,29.93,NNW,338,6.0,8.0,76,0.00,,,0.00,Wunderground v.1.15,2013-04-02 08:03:00,
2013-04-02 04:08:00,26.6,20.1,29.93,WSW,247,3.0,8.0,76,0.00,,,0.00,Wunderground v.1.15,2013-04-02 08:08:00,
2013-04-02 04:13:00,26.7,20.1,29.93,WSW,250,5.0,7.0,76,0.00,,,0.00,Wunderground v.1.15,2013-04-02 08:13:00,
2013-04-02 04:18:00,26.6,22.7,29.93,SW,223,8.0,8.0,85,0.00,,,0.00,Wunderground v.1.15,2013-04-02 08:18:00,
2013-04-02 04:23:00,26.1,21.9,29.93,WSW,245,3.0,5.0,84,0.00,,,0.00,Wunderground v.1.15,2013-04-02 08:23:00,
2013-04-02 04:28:00,25.7,21.8,29.93,West,265,5.0,7.0,85,0.00,,,0.00,Wunderground v.1.15,2013-04-02 08:28:00,
2013-04-02 04:33:00,25.7,21.5,29.93,West,262,7.0,9.0,84,0.00,,,0.00,Wunderground v.1.15,2013-04-02 08:33:00,
2013-04-02 04:38:00,26.0,21.3,29.93,WSW,246,3.0,9.0,82,0.00,,,0.00,Wunderground v.1.15,2013-04-02 08:38:00,
2013-04-02 04:43:00,26.1,20.8,29.92,SSW,211,5.0,8.0,80,0.00,,,0.00,Wunderground v.1.15,2013-04-02 08:43:00,
2013-04-02 04:48:00,26.2,20.6,29.93,West,281,3.0,8.0,79,0.00,,,0.00,Wunderground v.1.15,2013-04-02 08:48:00,
2013-04-02 04:53:00,26.3,20.7,29.93,West,277,8.0,8.0,79,0.00,,,0.00,Wunderground v.1.15,2013-04-02 08:53:00,
2013-04-02 04:58:00,26.3,20.4,29.93,West,259,3.0,9.0,78,0.00,,,0.00,Wunderground v.1.15,2013-04-02 08:58:00,
2013-04-02 05:03:00,26.3,20.1,29.93,WSW,244,6.0,8.0,77,0.00,,,0.00,Wunderground v.1.15,2013-04-02 09:03:00,
2013-04-02 05:08:00,26.3,19.5,29.93,SSW,193,6.0,9.0,75,0.00,,,0.00,Wunderground v.1.15,2013-04-02 09:08:00,
2013-04-02 05:13:00,26.4,19.2,29.93,West,268,2.0,8.0,74,0.00,,,0.00,Wunderground v.1.15,2013-04-02 09:13:00,
2013-04-02 05:18:00,26.6,18.8,29.93,WNW,297,10.0,10.0,72,0.00,,,0.00,Wunderground v.1.15,2013-04-02 09:18:00,
2013-04-02 05:23:00,26.6,19.1,29.93,SW,230,3.0,6.0,73,0.00,,,0.00,Wunderground v.1.15,2013-04-02 09:23:00,
2013-04-02 05:28:00,26.6,19.7,29.93,WSW,250,3.0,10.0,75,0.00,,,0.00,Wunderground v.1.15,2013-04-02 09:28:00,
2013-04-02 05:33:00,26.5,19.6,29.93,WSW,252,2.0,10.0,75,0.00,,,0.00,Wunderground v.1.15,2013-04-02 09:33:00,
2013-04-02 05:38:00,26.5,20.0,29.93,WSW,250,4.0,10.0,76,0.00,,,0.00,Wunderground v.1.15,2013-04-02 09:38:00,
2013-04-02 05:43:00,26.4,20.2,29.94,SW,214,7.0,8.0,77,0.00,,,0.00,Wunderground v.1.15,2013-04-02 09:43:00,
2013-04-02 05:48:00,26.3,20.4,29.94,SW,229,5.0,8.0,78,0.00,,,0.00,Wunderground v.1.15,2013-04-02 09:48:00,
2013-04-02 05:53:00,26.2,20.3,29.94,WSW,245,2.0,9.0,78,0.00,,,0.00,Wunderground v.1.15,2013-04-02 09:53:00,
2013-04-02 05:59:00,26.1,20.5,29.93,WSW,248,7.0,9.0,79,0.00,,,0.00,Wunderground v.1.15,2013-04-02 09:59:00,
2013-04-02 06:04:00,26.0,21.0,29.94,SW,228,1.0,7.0,81,0.00,,,0.00,Wunderground v.1.15,2013-04-02 10:04:00,
2013-04-02 06:09:00,25.8,21.1,29.94,SW,232,6.0,8.0,82,0.00,,,0.00,Wunderground v.1.15,2013-04-02 10:09:00,
2013-04-02 06:14:00,25.6,21.2,29.94,West,281,4.0,9.0,83,0.00,,,0.00,Wunderground v.1.15,2013-04-02 10:14:00,
2013-04-02 06:19:00,25.4,21.2,29.95,West,263,4.0,9.0,84,0.00,,,0.00,Wunderground v.1.15,2013-04-02 10:19:00,
2013-04-02 06:24:00,25.3,21.4,29.94,SW,235,4.0,6.0,85,0.00,,,0.00,Wunderground v.1.15,2013-04-02 10:24:00,
2013-04-02 06:29:00,25.1,21.2,29.95,WSW,255,3.0,10.0,85,0.00,,,0.00,Wunderground v.1.15,2013-04-02 10:29:00,
2013-04-02 06:34:00,25.0,21.1,29.95,West,275,6.0,7.0,85,0.00,,,0.00,Wunderground v.1.15,2013-04-02 10:34:00,
2013-04-02 06:39:00,25.0,21.1,29.95,SW,218,5.0,8.0,85,0.00,,,0.00,Wunderground v.1.15,2013-04-02 10:39:00,
2013-04-02 06:44:00,25.0,21.1,29.95,WSW,257,5.0,8.0,85,0.00,,,0.00,Wunderground v.1.15,2013-04-02 10:44:00,
2013-04-02 06:49:00,25.1,21.2,29.95,WSW,242,2.0,8.0,85,0.00,,,0.00,Wunderground v.1.15,2013-04-02 10:49:00,
2013-04-02 06:54:00,25.2,21.3,29.95,WSW,240,2.0,5.0,85,0.00,,,0.00,Wunderground v.1.15,2013-04-02 10:54:00,
2013-04-02 06:59:00,25.3,21.4,29.95,West,270,2.0,5.0,85,0.00,,,0.00,Wunderground v.1.15,2013-04-02 10:59:00,
2013-04-02 07:04:00,25.4,21.5,29.96,SSW,197,5.0,7.0,85,0.00,,,0.00,Wunderground v.1.15,2013-04-02 11:04:00,
2013-04-02 07:09:00,25.4,21.5,29.96,SW,230,3.0,7.0,85,0.00,,,0.00,Wunderground v.1.15,2013-04-02 11:09:00,
2013-04-02 07:14:00,25.4,21.5,29.97,SSW,200,2.0,7.0,85,0.00,,,0.00,Wunderground v.1.15,2013-04-02 11:14:00,
2013-04-02 07:19:00,25.4,21.5,29.96,SW,222,5.0,7.0,85,0.00,,,0.00,Wunderground v.1.15,2013-04-02 11:19:00,
2013-04-02 07:24:00,25.4,21.2,29.96,WNW,286,4.0,9.0,84,0.00,,,0.00,Wunderground v.1.15,2013-04-02 11:24:00,
2013-04-02 07:29:00,25.4,21.0,29.97,SW,215,3.0,9.0,83,0.00,,,0.00,Wunderground v.1.15,2013-04-02 11:29:00,
2013-04-02 07:34:00,25.4,21.0,29.97,SW,228,3.0,6.0,83,0.00,,,0.00,Wunderground v.1.15,2013-04-02 11:34:00,
2013-04-02 07:39:00,25.4,20.7,29.97,West,260,4.0,7.0,82,0.00,,,0.00,Wunderground v.1.15,2013-04-02 11:39:00,
2013-04-02 07:44:00,25.4,20.7,29.97,West,262,4.0,8.0,82,0.00,,,0.00,Wunderground v.1.15,2013-04-02 11:44:00,
2013-04-02 07:49:00,25.4,20.7,29.97,SSW,202,2.0,8.0,82,0.00,,,0.00,Wunderground v.1.15,2013-04-02 11:49:00,
2013-04-02 07:55:00,25.4,21.0,29.97,SW,232,7.0,9.0,83,0.00,,,0.00,Wunderground v.1.15,2013-04-02 11:55:00,
2013-04-02 08:00:00,25.6,20.9,29.97,SW,229,2.0,4.0,82,0.00,,,0.00,Wunderground v.1.15,2013-04-02 12:00:00,
2013-04-02 08:05:00,25.7,20.4,29.97,WSW,248,3.0,10.0,80,0.00,,,0.00,Wunderground v.1.15,2013-04-02 12:05:00,
2013-04-02 08:10:00,25.9,20.6,29.98,SSW,211,5.0,5.0,80,0.00,,,0.00,Wunderground v.1.15,2013-04-02 12:10:00,
2013-04-02 08:15:00,26.0,20.7,29.98,West,260,6.0,9.0,80,0.00,,,0.00,Wunderground v.1.15,2013-04-02 12:15:00,
2013-04-02 08:20:00,26.1,20.2,29.98,West,262,5.0,5.0,78,0.00,,,0.00,Wunderground v.1.15,2013-04-02 12:20:00,
2013-04-02 08:25:00,26.4,20.5,29.98,West,266,4.0,9.0,78,0.00,,,0.00,Wunderground v.1.15,2013-04-02 12:25:00,
2013-04-02 08:30:00,26.6,20.4,29.99,West,263,4.0,7.0,77,0.00,,,0.00,Wunderground v.1.15,2013-04-02 12:30:00,
2013-04-02 08:35:00,26.7,20.5,29.99,West,267,3.0,7.0,77,0.00,,,0.00,Wunderground v.1.15,2013-04-02 12:35:00,
2013-04-02 08:40:00,26.6,20.4,29.99,WNW,294,4.0,4.0,77,0.00,,,0.00,Wunderground v.1.15,2013-04-02 12:40:00,
2013-04-02 08:45:00,26.7,20.5,30.00,West,270,5.0,9.0,77,0.00,,,0.00,Wunderground v.1.15,2013-04-02 12:45:00,
2013-04-02 08:50:00,27.0,20.1,29.99,West,270,4.0,7.0,75,0.00,,,0.00,Wunderground v.1.15,2013-04-02 12:50:00,
2013-04-02 08:55:00,27.5,19.3,30.00,SSE,163,2.0,14.0,71,0.00,,,0.00,Wunderground v.1.15,2013-04-02 12:55:00,
2013-04-02 09:00:00,27.8,17.6,29.99,West,271,14.0,14.0,65,0.00,,,0.00,Wunderground v.1.15,2013-04-02 13:00:00,
2013-04-02 09:05:00,27.9,17.3,30.00,NW,306,7.0,17.0,64,0.00,,,0.00,Wunderground v.1.15,2013-04-02 13:05:00,
2013-04-02 09:10:00,28.1,17.1,30.00,WNW,294,11.0,11.0,63,0.00,,,0.00,Wunderground v.1.15,2013-04-02 13:10:00,
2013-04-02 09:15:00,28.2,17.2,30.00,WNW,284,6.0,13.0,63,0.00,,,0.00,Wunderground v.1.15,2013-04-02 13:15:00,
2013-04-02 09:20:00,28.5,17.5,30.00,West,273,4.0,7.0,63,0.00,,,0.00,Wunderground v.1.15,2013-04-02 13:20:00,
2013-04-02 09:25:00,28.5,17.9,30.00,West,277,9.0,17.0,64,0.00,,,0.00,Wunderground v.1.15,2013-04-02 13:25:00,
2013-04-02 09:30:00,28.0,19.5,30.00,WSW,244,8.0,10.0,70,0.00,,,0.00,Wunderground v.1.15,2013-04-02 13:30:00,
2013-04-02 09:35:00,28.0,20.8,30.00,WNW,292,3.0,11.0,74,0.00,,,0.00,Wunderground v.1.15,2013-04-02 13:35:00,
2013-04-02 09:40:00,27.8,20.9,30.01,West,262,3.0,7.0,75,0.00,,,0.00,Wunderground v.1.15,2013-04-02 13:40:00,
2013-04-02 09:45:00,27.3,21.9,30.01,WSW,254,7.0,11.0,80,0.00,,,0.00,Wunderground v.1.15,2013-04-02 13:45:00,
2013-04-02 09:50:00,26.9,22.1,30.01,West,277,10.0,10.0,82,0.00,,,0.00,Wunderground v.1.15,2013-04-02 13:50:00,
2013-04-02 09:55:00,26.8,22.3,30.01,WSW,256,3.0,11.0,83,0.00,,,0.00,Wunderground v.1.15,2013-04-02 13:55:00,
2013-04-02 10:00:00,27.2,21.8,30.01,West,276,6.0,10.0,80,0.00,,,0.00,Wunderground v.1.15,2013-04-02 14:00:00,
2013-04-02 10:05:00,27.5,20.9,30.01,West,261,5.0,14.0,76,0.00,,,0.00,Wunderground v.1.15,2013-04-02 14:05:00,
2013-04-02 10:10:00,27.9,20.4,30.01,WSW,253,5.0,9.0,73,0.00,,,0.00,Wunderground v.1.15,2013-04-02 14:10:00,
2013-04-02 10:15:00,28.2,19.0,30.01,WNW,284,8.0,17.0,68,0.00,,,0.00,Wunderground v.1.15,2013-04-02 14:15:00,
2013-04-02 10:20:00,28.2,19.0,30.01,WNW,284,6.0,16.0,68,0.00,,,0.00,Wunderground v.1.15,2013-04-02 14:20:00,
2013-04-02 10:25:00,28.1,17.8,30.01,NW,304,12.0,19.0,65,0.00,,,0.00,Wunderground v.1.15,2013-04-02 14:25:00,
2013-04-02 10:30:00,28.5,18.6,30.01,WNW,299,6.0,18.0,66,0.00,,,0.00,Wunderground v.1.15,2013-04-02 14:30:00,
2013-04-02 10:36:00,28.4,17.8,30.01,West,271,9.0,18.0,64,0.00,,,0.00,Wunderground v.1.15,2013-04-02 14:36:00,
2013-04-02 10:41:00,28.5,18.6,30.02,WSW,258,5.0,9.0,66,0.00,,,0.00,Wunderground v.1.15,2013-04-02 14:41:00,
2013-04-02 10:46:00,28.3,21.1,30.02,West,270,5.0,13.0,74,0.00,,,0.00,Wunderground v.1.15,2013-04-02 14:46:00,
2013-04-02 10:51:00,27.9,21.9,30.02,West,277,7.0,7.0,78,0.00,,,0.00,Wunderground v.1.15,2013-04-02 14:51:00,
2013-04-02 10:56:00,28.0,22.0,30.02,WNW,288,5.0,11.0,78,0.00,,,0.00,Wunderground v.1.15,2013-04-02 14:56:00,
2013-04-02 11:01:00,28.6,22.0,30.01,WNW,288,8.0,9.0,76,0.00,,,0.00,Wunderground v.1.15,2013-04-02 15:01:00,
2013-04-02 11:06:00,29.1,21.2,30.01,WSW,255,3.0,12.0,72,0.00,,,0.00,Wunderground v.1.15,2013-04-02 15:06:00,
2013-04-02 11:11:00,30.0,20.4,30.01,WNW,292,13.0,13.0,67,0.00,,,0.00,Wunderground v.1.15,2013-04-02 15:11:00,
2013-04-02 11:16:00,29.9,19.6,30.01,West,260,5.0,15.0,65,0.00,,,0.00,Wunderground v.1.15,2013-04-02 15:16:00,
2013-04-02 11:22:00,29.8,19.5,30.01,West,273,5.0,20.0,65,0.00,,,0.00,Wunderground v.1.15,2013-04-02 15:22:00,
2013-04-02 11:27:00,29.6,19.6,30.02,WSW,246,10.0,20.0,66,0.00,,,0.00,Wunderground v.1.15,2013-04-02 15:27:00,
2013-04-02 11:32:00,29.7,20.1,30.02,WNW,287,8.0,12.0,67,0.00,,,0.00,Wunderground v.1.15,2013-04-02 15:32:00,
2013-04-02 11:37:00,30.3,21.3,30.02,WSW,238,6.0,12.0,69,0.00,,,0.00,Wunderground v.1.15,2013-04-02 15:37:00,
2013-04-02 11:42:00,30.6,20.6,30.02,West,264,6.0,10.0,66,0.00,,,0.00,Wunderground v.1.15,2013-04-02 15:42:00,
2013-04-02 11:47:00,30.4,20.4,30.02,West,269,10.0,11.0,66,0.00,,,0.00,Wunderground v.1.15,2013-04-02 15:47:00,
2013-04-02 11:53:00,29.6,20.3,30.02,West,276,11.0,17.0,68,0.00,,,0.00,Wunderground v.1.15,2013-04-02 15:53:00,
2013-04-02 11:58:00,28.9,21.3,30.02,West,279,7.0,17.0,73,0.00,,,0.00,Wunderground v.1.15,2013-04-02 15:58:00,
2013-04-02 12:03:00,29.8,22.5,30.01,NW,319,6.0,10.0,74,0.00,,,0.00,Wunderground v.1.15,2013-04-02 16:03:00,
2013-04-02 12:08:00,30.6,20.9,30.01,WSW,245,3.0,16.0,67,0.00,,,0.00,Wunderground v.1.15,2013-04-02 16:08:00,
2013-04-02 12:13:00,31.5,20.7,30.01,West,277,6.0,13.0,64,0.00,,,0.00,Wunderground v.1.15,2013-04-02 16:13:00,
2013-04-02 12:18:00,31.5,19.2,30.01,WNW,297,13.0,17.0,60,0.00,,,0.00,Wunderground v.1.15,2013-04-02 16:18:00,
2013-04-02 12:23:00,30.8,21.5,30.01,West,281,8.0,13.0,68,0.00,,,0.00,Wunderground v.1.15,2013-04-02 16:23:00,
2013-04-02 12:29:00,29.4,22.1,30.02,West,265,5.0,16.0,74,0.00,,,0.00,Wunderground v.1.15,2013-04-02 16:29:00,
2013-04-02 12:34:00,29.4,23.1,30.02,West,276,6.0,7.0,77,0.00,,,0.00,Wunderground v.1.15,2013-04-02 16:34:00,
2013-04-02 12:39:00,30.1,23.4,30.02,West,261,7.0,14.0,76,0.00,,,0.00,Wunderground v.1.15,2013-04-02 16:39:00,
2013-04-02 12:44:00,29.6,23.9,30.02,West,267,5.0,10.0,79,0.00,,,0.00,Wunderground v.1.15,2013-04-02 16:44:00,
2013-04-02 12:49:00,29.3,23.6,30.02,West,273,11.0,12.0,79,0.00,,,0.00,Wunderground v.1.15,2013-04-02 16:49:00,
2013-04-02 12:54:00,29.6,21.7,30.01,West,265,5.0,14.0,72,0.00,,,0.00,Wunderground v.1.15,2013-04-02 16:54:00,
2013-04-02 12:59:00,30.0,21.7,30.01,WNW,288,8.0,14.0,71,0.00,,,0.00,Wunderground v.1.15,2013-04-02 16:59:00,
2013-04-02 13:04:00,30.5,21.5,30.01,WSW,248,7.0,12.0,69,0.00,,,0.00,Wunderground v.1.15,2013-04-02 17:04:00,
2013-04-02 13:10:00,31.0,22.0,30.01,WNW,296,8.0,14.0,69,0.00,,,0.00,Wunderground v.1.15,2013-04-02 17:10:00,
2013-04-02 13:15:00,31.0,21.7,30.01,West,274,5.0,14.0,68,0.00,,,0.00,Wunderground v.1.15,2013-04-02 17:15:00,
2013-04-02 13:20:00,31.3,22.0,30.01,West,279,4.0,7.0,68,0.00,,,0.00,Wunderground v.1.15,2013-04-02 17:20:00,
2013-04-02 13:25:00,31.6,21.5,30.00,West,272,5.0,18.0,66,0.00,,,0.00,Wunderground v.1.15,2013-04-02 17:25:00,
2013-04-02 13:30:00,32.3,22.6,30.00,WNW,288,6.0,18.0,67,0.00,,,0.00,Wunderground v.1.15,2013-04-02 17:30:00,
2013-04-02 13:35:00,32.2,21.4,30.00,NW,316,5.0,23.0,64,0.00,,,0.00,Wunderground v.1.15,2013-04-02 17:35:00,
2013-04-02 13:40:00,32.3,20.3,30.00,NW,310,10.0,12.0,61,0.00,,,0.00,Wunderground v.1.15,2013-04-02 17:40:00,
2013-04-02 13:45:00,31.8,21.4,30.00,SSW,202,10.0,17.0,65,0.00,,,0.00,Wunderground v.1.15,2013-04-02 17:45:00,
2013-04-02 13:50:00,31.3,22.0,30.00,West,279,8.0,9.0,68,0.00,,,0.00,Wunderground v.1.15,2013-04-02 17:50:00,
2013-04-02 13:55:00,31.6,22.6,30.00,NW,314,5.0,13.0,69,0.00,,,0.00,Wunderground v.1.15,2013-04-02 17:55:00,
2013-04-02 14:00:00,32.6,22.8,30.00,NW,311,12.0,12.0,67,0.00,,,0.00,Wunderground v.1.15,2013-04-02 18:00:00,
2013-04-02 14:05:00,33.0,21.4,30.00,WSW,254,4.0,20.0,62,0.00,,,0.00,Wunderground v.1.15,2013-04-02 18:05:00,
2013-04-02 14:10:00,33.1,21.5,29.99,NW,325,9.0,9.0,62,0.00,,,0.00,Wunderground v.1.15,2013-04-02 18:10:00,
2013-04-02 14:16:00,32.4,21.2,30.00,WNW,302,10.0,18.0,63,0.00,,,0.00,Wunderground v.1.15,2013-04-02 18:16:00,
2013-04-02 14:22:00,32.1,21.3,30.00,SW,223,6.0,11.0,64,0.00,,,0.00,Wunderground v.1.15,2013-04-02 18:22:00,
2013-04-02 14:27:00,32.7,21.5,30.00,NW,320,6.0,11.0,63,0.00,,,0.00,Wunderground v.1.15,2013-04-02 18:27:00,
2013-04-02 14:32:00,32.2,22.5,30.00,West,271,6.0,23.0,67,0.00,,,0.00,Wunderground v.1.15,2013-04-02 18:32:00,
2013-04-02 14:37:00,31.4,23.4,30.00,WNW,288,11.0,23.0,72,0.00,,,0.00,Wunderground v.1.15,2013-04-02 18:37:00,
2013-04-02 14:42:00,32.0,23.3,30.00,WSW,246,2.0,12.0,70,0.00,,,0.00,Wunderground v.1.15,2013-04-02 18:42:00,
2013-04-02 14:48:00,32.4,23.7,30.00,West,266,10.0,17.0,70,0.00,,,0.00,Wunderground v.1.15,2013-04-02 18:48:00,
2013-04-02 14:53:00,32.3,22.6,30.01,WNW,302,12.0,14.0,67,0.00,,,0.00,Wunderground v.1.15,2013-04-02 18:53:00,
2013-04-02 14:58:00,30.6,25.2,30.01,WNW,284,3.0,20.0,80,0.00,,,0.00,Wunderground v.1.15,2013-04-02 18:58:00,
2013-04-02 15:03:00,30.5,24.5,30.00,SSW,198,11.0,11.0,78,0.00,,,0.00,Wunderground v.1.15,2013-04-02 19:03:00,
2013-04-02 15:08:00,31.6,26.1,30.00,WNW,284,7.0,13.0,80,0.00,,,0.00,Wunderground v.1.15,2013-04-02 19:08:00,
2013-04-02 15:13:00,32.4,24.7,30.00,West,277,11.0,12.0,73,0.00,,,0.00,Wunderground v.1.15,2013-04-02 19:13:00,
2013-04-02 15:18:00,32.8,24.1,30.00,West,279,6.0,12.0,70,0.00,,,0.00,Wunderground v.1.15,2013-04-02 19:18:00,
2013-04-02 15:23:00,33.7,25.6,30.00,West,262,7.0,9.0,72,0.00,,,0.00,Wunderground v.1.15,2013-04-02 19:23:00,
2013-04-02 15:29:00,33.4,25.3,30.00,WSW,243,8.0,12.0,72,0.00,,,0.00,Wunderground v.1.15,2013-04-02 19:29:00,
2013-04-02 15:34:00,32.5,25.1,30.00,West,281,8.0,18.0,74,0.00,,,0.00,Wunderground v.1.15,2013-04-02 19:34:00,
2013-04-02 15:39:00,31.5,26.0,30.00,West,268,9.0,18.0,80,0.00,,,0.00,Wunderground v.1.15,2013-04-02 19:39:00,
2013-04-02 15:45:00,31.1,27.1,30.00,West,259,4.0,12.0,85,0.00,,,0.01,Wunderground v.1.15,2013-04-02 19:45:00,
2013-04-02 15:50:00,31.9,27.3,29.99,West,267,8.0,12.0,83,0.00,,,0.01,Wunderground v.1.15,2013-04-02 19:50:00,
2013-04-02 15:55:00,31.8,25.7,29.99,WSW,255,4.0,11.0,78,0.00,,,0.01,Wunderground v.1.15,2013-04-02 19:55:00,
2013-04-02 16:00:00,32.0,25.3,29.99,WSW,257,6.0,7.0,76,0.00,,,0.01,Wunderground v.1.15,2013-04-02 20:00:00,
2013-04-02 16:05:00,32.3,25.6,29.99,SSW,198,5.0,11.0,76,0.00,,,0.01,Wunderground v.1.15,2013-04-02 20:05:00,
2013-04-02 16:10:00,32.4,26.6,29.99,NE,47,10.0,10.0,79,0.00,,,0.01,Wunderground v.1.15,2013-04-02 20:10:00,
2013-04-02 16:15:00,32.5,26.4,29.99,WSW,237,7.0,14.0,78,0.00,,,0.01,Wunderground v.1.15,2013-04-02 20:15:00,
2013-04-02 16:21:00,32.6,26.2,29.99,West,275,6.0,10.0,77,0.00,,,0.01,Wunderground v.1.15,2013-04-02 20:21:00,
2013-04-02 16:26:00,32.8,26.4,29.99,West,269,7.0,10.0,77,0.00,,,0.01,Wunderground v.1.15,2013-04-02 20:26:00,
2013-04-02 16:31:00,32.7,26.3,29.99,WNW,282,4.0,6.0,77,0.00,,,0.01,Wunderground v.1.15,2013-04-02 20:31:00,
2013-04-02 16:36:00,32.5,27.0,29.99,SSW,211,4.0,10.0,80,0.00,,,0.01,Wunderground v.1.15,2013-04-02 20:36:00,
2013-04-02 16:41:00,32.2,27.0,29.99,WSW,247,6.0,10.0,81,0.00,,,0.01,Wunderground v.1.15,2013-04-02 20:41:00,
2013-04-02 16:46:00,32.1,26.9,29.99,WSW,245,5.0,13.0,81,0.00,,,0.01,Wunderground v.1.15,2013-04-02 20:46:00,
2013-04-02 16:51:00,32.2,27.0,29.99,West,267,6.0,8.0,81,0.00,,,0.01,Wunderground v.1.15,2013-04-02 20:51:00,
2013-04-02 16:56:00,32.4,27.5,29.99,SW,236,8.0,10.0,82,0.00,,,0.01,Wunderground v.1.15,2013-04-02 20:56:00,
2013-04-02 17:01:00,32.8,26.4,29.99,SW,234,8.0,8.0,77,0.00,,,0.01,Wunderground v.1.15,2013-04-02 21:01:00,
2013-04-02 17:06:00,33.7,26.3,29.99,WNW,288,9.0,11.0,74,0.00,,,0.01,Wunderground v.1.15,2013-04-02 21:06:00,
2013-04-02 17:11:00,34.3,24.1,29.99,WNW,282,6.0,12.0,66,0.00,,,0.01,Wunderground v.1.15,2013-04-02 21:11:00,
2013-04-02 17:17:00,35.2,18.9,29.98,West,274,13.0,20.0,51,0.00,,,0.01,Wunderground v.1.15,2013-04-02 21:17:00,
2013-04-02 17:22:00,36.0,18.7,29.99,NW,319,2.0,16.0,49,0.00,,,0.01,Wunderground v.1.15,2013-04-02 21:22:00,
2013-04-02 17:27:00,35.8,18.0,29.99,NW,311,15.0,16.0,48,0.00,,,0.01,Wunderground v.1.15,2013-04-02 21:27:00,
2013-04-02 17:33:00,35.7,16.9,29.99,WNW,284,8.0,17.0,46,0.00,,,0.01,Wunderground v.1.15,2013-04-02 21:33:00,
2013-04-02 17:38:00,36.1,17.8,29.99,West,269,18.0,18.0,47,0.00,,,0.01,Wunderground v.1.15,2013-04-02 21:38:00,
2013-04-02 17:43:00,35.4,16.1,30.00,NW,311,17.0,22.0,45,0.00,,,0.01,Wunderground v.1.15,2013-04-02 21:43:00,
2013-04-02 17:48:00,35.8,17.5,30.00,West,277,7.0,22.0,47,0.00,,,0.01,Wunderground v.1.15,2013-04-02 21:48:00,
2013-04-02 17:53:00,35.6,15.8,30.00,West,269,12.0,21.0,44,0.00,,,0.01,Wunderground v.1.15,2013-04-02 21:53:00,
2013-04-02 17:58:00,35.3,16.6,30.00,NW,311,9.0,21.0,46,0.00,,,0.01,Wunderground v.1.15,2013-04-02 21:58:00,
2013-04-02 18:03:00,35.2,17.4,30.00,West,274,10.0,19.0,48,0.00,,,0.01,Wunderground v.1.15,2013-04-02 22:03:00,
2013-04-02 18:08:00,35.0,17.3,30.01,WNW,284,21.0,21.0,48,0.00,,,0.01,Wunderground v.1.15,2013-04-02 22:08:00,
2013-04-02 18:13:00,34.7,17.9,30.01,West,278,11.0,16.0,50,0.00,,,0.01,Wunderground v.1.15,2013-04-02 22:13:00,
2013-04-02 18:18:00,34.5,18.7,30.01,WNW,287,4.0,16.0,52,0.00,,,0.01,Wunderground v.1.15,2013-04-02 22:18:00,
2013-04-02 18:23:00,34.5,19.5,30.02,WSW,246,10.0,18.0,54,0.00,,,0.01,Wunderground v.1.15,2013-04-02 22:23:00,
2013-04-02 18:28:00,34.4,17.7,30.02,West,278,13.0,25.0,50,0.00,,,0.01,Wunderground v.1.15,2013-04-02 22:28:00,
2013-04-02 18:33:00,34.2,17.9,30.02,NNW,331,4.0,12.0,51,0.00,,,0.01,Wunderground v.1.15,2013-04-02 22:33:00,
2013-04-02 18:38:00,34.2,17.5,30.02,WNW,282,7.0,14.0,50,0.00,,,0.01,Wunderground v.1.15,2013-04-02 22:38:00,
2013-04-02 18:44:00,34.2,17.9,30.02,WNW,287,7.0,25.0,51,0.00,,,0.01,Wunderground v.1.15,2013-04-02 22:44:00,
2013-04-02 18:49:00,34.1,19.2,30.03,West,273,12.0,25.0,54,0.00,,,0.01,Wunderground v.1.15,2013-04-02 22:49:00,
2013-04-02 18:54:00,33.7,20.1,30.03,WSW,250,13.0,21.0,57,0.00,,,0.01,Wunderground v.1.15,2013-04-02 22:54:00,
2013-04-02 18:59:00,33.5,19.9,30.03,West,262,4.0,21.0,57,0.00,,,0.01,Wunderground v.1.15,2013-04-02 22:59:00,
2013-04-02 19:04:00,33.3,19.3,30.03,West,279,6.0,20.0,56,0.00,,,0.01,Wunderground v.1.15,2013-04-02 23:04:00,
2013-04-02 19:09:00,33.0,19.0,30.03,West,273,12.0,20.0,56,0.00,,,0.01,Wunderground v.1.15,2013-04-02 23:09:00,
2013-04-02 19:14:00,32.9,19.3,30.04,West,264,4.0,14.0,57,0.00,,,0.01,Wunderground v.1.15,2013-04-02 23:14:00,
2013-04-02 19:19:00,32.8,19.2,30.04,WSW,255,7.0,16.0,57,0.00,,,0.01,Wunderground v.1.15,2013-04-02 23:19:00,
2013-04-02 19:25:00,33.0,19.4,30.04,WSW,247,5.0,15.0,57,0.00,,,0.01,Wunderground v.1.15,2013-04-02 23:25:00,
2013-04-02 19:30:00,33.0,19.4,30.04,West,277,14.0,14.0,57,0.00,,,0.01,Wunderground v.1.15,2013-04-02 23:30:00,
2013-04-02 19:35:00,33.0,19.8,30.04,West,275,9.0,14.0,58,0.00,,,0.01,Wunderground v.1.15,2013-04-02 23:35:00,
2013-04-02 19:40:00,33.1,20.7,30.05,NW,315,7.0,9.0,60,0.00,,,0.01,Wunderground v.1.15,2013-04-02 23:40:00,
2013-04-02 19:45:00,33.0,20.2,30.05,WNW,296,12.0,20.0,59,0.00,,,0.01,Wunderground v.1.15,2013-04-02 23:45:00,
2013-04-02 19:50:00,32.8,19.6,30.05,West,279,7.0,11.0,58,0.00,,,0.01,Wunderground v.1.15,2013-04-02 23:50:00,
2013-04-02 19:55:00,32.5,19.3,30.05,West,278,7.0,17.0,58,0.00,,,0.01,Wunderground v.1.15,2013-04-02 23:55:00,
2013-04-02 20:01:00,32.3,19.2,30.05,WNW,286,12.0,13.0,58,0.00,,,0.01,Wunderground v.1.15,2013-04-03 00:01:00,
2013-04-02 20:06:00,32.3,19.2,30.05,West,280,13.0,18.0,58,0.00,,,0.01,Wunderground v.1.15,2013-04-03 00:06:00,
2013-04-02 20:11:00,32.3,18.8,30.05,NW,309,6.0,16.0,57,0.00,,,0.01,Wunderground v.1.15,2013-04-03 00:11:00,
2013-04-02 20:17:00,32.2,18.7,30.06,WNW,282,10.0,16.0,57,0.00,,,0.01,Wunderground v.1.15,2013-04-03 00:17:00,
2013-04-02 20:22:00,32.1,18.2,30.06,WNW,286,10.0,14.0,56,0.00,,,0.01,Wunderground v.1.15,2013-04-03 00:22:00,
2013-04-02 20:27:00,32.3,17.5,30.06,WNW,284,5.0,19.0,54,0.00,,,0.01,Wunderground v.1.15,2013-04-03 00:27:00,
2013-04-02 20:32:00,32.3,17.5,30.06,West,272,12.0,12.0,54,0.00,,,0.01,Wunderground v.1.15,2013-04-03 00:32:00,
2013-04-02 20:38:00,32.3,17.1,30.06,West,271,9.0,20.0,53,0.00,,,0.01,Wunderground v.1.15,2013-04-03 00:38:00,
2013-04-02 20:43:00,32.2,17.0,30.07,West,264,8.0,11.0,53,0.00,,,0.01,Wunderground v.1.15,2013-04-03 00:43:00,
2013-04-02 20:49:00,32.2,17.0,30.07,West,267,12.0,15.0,53,0.00,,,0.01,Wunderground v.1.15,2013-04-03 00:49:00,
2013-04-02 20:54:00,32.2,17.0,30.07,NW,326,3.0,14.0,53,0.00,,,0.01,Wunderground v.1.15,2013-04-03 00:54:00,
2013-04-02 20:59:00,32.1,17.3,30.07,West,261,5.0,14.0,54,0.00,,,0.01,Wunderground v.1.15,2013-04-03 00:59:00,
2013-04-02 21:04:00,32.0,16.8,30.07,West,267,8.0,9.0,53,0.00,,,0.01,Wunderground v.1.15,2013-04-03 01:04:00,
2013-04-02 21:09:00,32.2,16.5,30.08,WNW,294,8.0,16.0,52,0.00,,,0.01,Wunderground v.1.15,2013-04-03 01:09:00,
2013-04-02 21:14:00,32.2,17.0,30.08,WNW,292,8.0,14.0,53,0.00,,,0.01,Wunderground v.1.15,2013-04-03 01:14:00,
2013-04-02 21:19:00,32.2,17.0,30.08,West,269,3.0,14.0,53,0.00,,,0.01,Wunderground v.1.15,2013-04-03 01:19:00,
2013-04-02 21:24:00,32.2,17.0,30.08,WNW,294,5.0,9.0,53,0.00,,,0.01,Wunderground v.1.15,2013-04-03 01:24:00,
2013-04-02 21:29:00,32.1,16.9,30.08,WNW,283,4.0,9.0,53,0.00,,,0.01,Wunderground v.1.15,2013-04-03 01:29:00,
2013-04-02 21:34:00,32.1,17.3,30.08,WSW,258,5.0,8.0,54,0.00,,,0.01,Wunderground v.1.15,2013-04-03 01:34:00,
2013-04-02 21:39:00,32.1,17.3,30.08,WSW,243,10.0,12.0,54,0.00,,,0.01,Wunderground v.1.15,2013-04-03 01:39:00,
2013-04-02 21:44:00,32.0,18.5,30.08,West,271,6.0,10.0,57,0.00,,,0.01,Wunderground v.1.15,2013-04-03 01:44:00,
2013-04-02 21:50:00,32.0,18.5,30.08,West,275,4.0,7.0,57,0.00,,,0.01,Wunderground v.1.15,2013-04-03 01:50:00,
2013-04-02 21:55:00,32.1,18.6,30.08,West,259,5.0,12.0,57,0.00,,,0.01,Wunderground v.1.15,2013-04-03 01:55:00,
2013-04-02 22:00:00,32.1,18.6,30.09,West,263,4.0,6.0,57,0.00,,,0.01,Wunderground v.1.15,2013-04-03 02:00:00,
2013-04-02 22:05:00,32.1,18.6,30.08,WSW,246,7.0,13.0,57,0.00,,,0.01,Wunderground v.1.15,2013-04-03 02:05:00,
2013-04-02 22:11:00,32.1,19.0,30.08,West,268,5.0,11.0,58,0.00,,,0.01,Wunderground v.1.15,2013-04-03 02:11:00,
2013-04-02 22:16:00,32.1,19.0,30.08,WNW,300,13.0,13.0,58,0.00,,,0.01,Wunderground v.1.15,2013-04-03 02:16:00,
2013-04-02 22:21:00,32.1,19.0,30.08,West,261,5.0,11.0,58,0.00,,,0.01,Wunderground v.1.15,2013-04-03 02:21:00,
2013-04-02 22:26:00,32.1,19.4,30.08,WNW,284,14.0,14.0,59,0.00,,,0.01,Wunderground v.1.15,2013-04-03 02:26:00,
2013-04-02 22:32:00,32.0,20.1,30.08,West,277,3.0,7.0,61,0.00,,,0.01,Wunderground v.1.15,2013-04-03 02:32:00,
2013-04-02 22:37:00,31.8,20.6,30.08,WNW,291,11.0,14.0,63,0.00,,,0.01,Wunderground v.1.15,2013-04-03 02:37:00,
2013-04-02 22:42:00,31.7,20.5,30.08,NW,326,8.0,8.0,63,0.00,,,0.01,Wunderground v.1.15,2013-04-03 02:42:00,
2013-04-02 22:47:00,31.8,20.3,30.08,WNW,290,4.0,8.0,62,0.00,,,0.01,Wunderground v.1.15,2013-04-03 02:47:00,
2013-04-02 22:52:00,31.8,19.9,30.08,WNW,288,7.0,9.0,61,0.00,,,0.01,Wunderground v.1.15,2013-04-03 02:52:00,
2013-04-02 22:57:00,31.9,20.0,30.08,WNW,300,5.0,11.0,61,0.00,,,0.01,Wunderground v.1.15,2013-04-03 02:57:00,
2013-04-02 23:03:00,31.8,21.0,30.09,West,266,7.0,13.0,64,0.00,,,0.01,Wunderground v.1.15,2013-04-03 03:03:00,
2013-04-02 23:08:00,31.4,22.4,30.09,WNW,284,9.0,17.0,69,0.00,,,0.01,Wunderground v.1.15,2013-04-03 03:08:00,
2013-04-02 23:13:00,30.7,23.7,30.09,West,271,3.0,10.0,75,0.00,,,0.01,Wunderground v.1.15,2013-04-03 03:13:00,
2013-04-02 23:18:00,30.2,23.2,30.09,NE,46,3.0,11.0,75,0.00,,,0.01,Wunderground v.1.15,2013-04-03 03:18:00,
2013-04-02 23:23:00,30.4,22.8,30.09,WNW,291,5.0,7.0,73,0.00,,,0.01,Wunderground v.1.15,2013-04-03 03:23:00,
2013-04-02 23:28:00,30.8,21.8,30.09,WNW,286,8.0,9.0,69,0.00,,,0.01,Wunderground v.1.15,2013-04-03 03:28:00,
2013-04-02 23:33:00,31.2,20.4,30.09,NW,321,6.0,17.0,64,0.00,,,0.01,Wunderground v.1.15,2013-04-03 03:33:00,
2013-04-02 23:38:00,31.5,19.6,30.09,West,265,6.0,17.0,61,0.00,,,0.01,Wunderground v.1.15,2013-04-03 03:38:00,
2013-04-02 23:43:00,31.6,19.3,30.08,West,280,11.0,17.0,60,0.00,,,0.01,Wunderground v.1.15,2013-04-03 03:43:00,
2013-04-02 23:48:00,31.7,19.4,30.09,WSW,251,6.0,17.0,60,0.00,,,0.01,Wunderground v.1.15,2013-04-03 03:48:00,
2013-04-02 23:53:00,31.7,19.4,30.09,WNW,288,5.0,13.0,60,0.00,,,0.01,Wunderground v.1.15,2013-04-03 03:53:00,
2013-04-02 23:58:00,31.6,19.7,30.09,NW,313,4.0,13.0,61,0.00,,,0.01,Wunderground v.1.15,2013-04-03 03:58:00,